Location: Blangy-Tronville
(49.8790°N, 2.4226°E)
Time: 07:40:28
(UTC+00:00)

Cosmos 2251 Rocket - Pass Details

Date: 18 November 2025
Orbit: 760 x 788 km, 74.0° (Epoch: 06 December)

Event Time Altitude Azimuth Distance (km) Brightness Sun altitude
Rises 17:26:29 0° 186° (S) 3,232 7.0 -13.3°
Reaches altitude 10° 17:28:53 10° 181° (S) 2,314 6.2 -13.7°
Maximum altitude 17:33:58 51° 106° (ESE) 971 3.7 -14.5°
Enters shadow 17:38:35 13° 34° (NNE) 2,148 5.4 -15.2°
